Eveleth, MN

7:30 PM CDT on March 24, 2017 (GMT -0500)
Eveleth-Virginia Municipal

Weather History for KEVM - September, 2013

Change the Weather History Date:

Tuesday, September 10, 2013

  Actual Average Record
Temperature  
Mean Temperature 63 °F -  
Max Temperature 71 °F 68 °F 86 °F (2005)
Min Temperature 51 °F 45 °F 32 °F (2006)
Degree Days  
Heating Degree Days 2    
Growing Degree Days 13 (Base 50)    
Moisture  
Dew Point 60 °F    
Average Humidity 84    
Maximum Humidity 100    
Minimum Humidity 64    
Precipitation  
Precipitation 0.00 in - - ()
Sea Level Pressure  
Sea Level Pressure 29.85 in    
Wind  
Wind Speed 6 mph (West)    
Max Wind Speed 14 mph    
Max Gust Speed 16 mph    
Visibility 8 miles    
Events Fog , Rain    
Averages and records for this station are not official NWS values.
T = Trace of Precipitation, MM = Missing Value Source: NWS Daily Summary

Daily Weather History Graph

Daily Weather History Graph

Search for Another Location

Airport or City:

Trip Planner

Search our weather history database for the weather conditions in past years. The results will help you decide how hot, cold, wet, or windy it might be!

Date:

Astronomy

Sep. 10, 2013 Rise Set
Actual Time 6:41 AM CDT 7:31 PM CDT
Civil Twilight 6:09 AM CDT 8:02 PM CDT
Nautical Twilight 5:32 AM CDT 8:39 PM CDT
Astronomical Twilight 4:53 AM CDT 9:18 PM CDT
Moon 12:31 PM CDT (9/10) 10:09 PM CDT (9/10)
Length of Visible Light 13h 52m
Length of Day
12h 50m
Waxing Crescent, 28% of the Moon is Illuminated
Sep 10
Waxing Crescent
Sep 12
First Quarter
Sep 19
Full
Sep 26
Last Quarter
Oct 4
New

Hourly Weather History & Observations

Time (CDT) Temp. Dew Point Humidity Pressure Visibility Wind Dir Wind Speed Gust Speed Precip Events Conditions
12:07 AM 62.6 °F 62.6 °F 100% 29.73 in 0.5 mi South 4.6 mph - N/A Fog Fog
12:27 AM 62.6 °F 62.6 °F 100% 29.73 in 0.5 mi South 3.5 mph - N/A Fog Fog
12:47 AM 62.6 °F 62.6 °F 100% 29.73 in 0.8 mi South 3.5 mph - N/A   Overcast
1:06 AM 62.6 °F 62.6 °F 100% 29.73 in 1.2 mi SSW 3.5 mph - N/A   Overcast
1:27 AM 64.4 °F 62.6 °F 94% 29.73 in 2.5 mi SSW 5.8 mph - N/A   Overcast
1:47 AM 64.4 °F 62.6 °F 94% 29.73 in 3.0 mi SW 3.5 mph - N/A   Overcast
2:06 AM 64.4 °F 62.6 °F 94% 29.73 in 3.0 mi WSW 5.8 mph - N/A   Overcast
2:27 AM 64.4 °F 64.4 °F 100% 29.74 in 5.0 mi WSW 3.5 mph - N/A   Overcast
2:47 AM 64.4 °F 64.4 °F 100% 29.75 in 7.0 mi West 4.6 mph - N/A   Overcast
3:07 AM 64.4 °F 64.4 °F 100% 29.76 in 10.0 mi West 4.6 mph - N/A   Overcast
3:27 AM 64.4 °F 64.4 °F 100% 29.76 in 10.0 mi WSW 5.8 mph - N/A   Overcast
3:47 AM 64.4 °F 64.4 °F 100% 29.76 in 10.0 mi West 5.8 mph - N/A   Overcast
4:07 AM 64.4 °F 64.4 °F 100% 29.77 in 3.0 mi West 5.8 mph - N/A Rain Light Rain
4:28 AM 64.4 °F 62.6 °F 94% 29.77 in 10.0 mi West 9.2 mph - N/A   Mostly Cloudy
4:47 AM 64.4 °F 62.6 °F 94% 29.77 in 4.0 mi West 8.1 mph - N/A   Overcast
5:07 AM 64.4 °F 62.6 °F 94% 29.78 in 5.0 mi West 8.1 mph - N/A   Overcast
5:28 AM 64.4 °F 62.6 °F 94% 29.78 in 10.0 mi West 5.8 mph - N/A   Overcast
5:47 AM 64.4 °F 62.6 °F 94% 29.79 in 7.0 mi West 8.1 mph - N/A   Overcast
6:07 AM 62.6 °F 62.6 °F 100% 29.80 in 10.0 mi West 10.4 mph 16.1 mph N/A   Overcast
6:28 AM 62.6 °F 62.6 °F 100% 29.81 in 10.0 mi West 8.1 mph - N/A   Mostly Cloudy
6:47 AM 62.6 °F 62.6 °F 100% 29.82 in 10.0 mi West 9.2 mph - N/A   Mostly Cloudy
7:07 AM 62.6 °F 62.6 °F 100% 29.82 in 10.0 mi West 6.9 mph - N/A   Overcast
7:28 AM 62.6 °F 60.8 °F 94% 29.83 in 1.0 mi West 8.1 mph - N/A   Overcast
7:47 AM 62.6 °F 60.8 °F 94% 29.83 in 1.8 mi West 6.9 mph - N/A   Overcast
8:07 AM 62.6 °F 60.8 °F 94% 29.84 in 2.0 mi West 8.1 mph - N/A   Overcast
8:28 AM 62.6 °F 60.8 °F 94% 29.83 in 7.0 mi West 9.2 mph - N/A   Overcast
8:47 AM 62.6 °F 60.8 °F 94% 29.83 in 10.0 mi West 8.1 mph - N/A   Overcast
9:07 AM 62.6 °F 60.8 °F 94% 29.83 in 10.0 mi West 3.5 mph - N/A   Overcast
9:28 AM 64.4 °F 60.8 °F 88% 29.84 in 10.0 mi West 6.9 mph - N/A   Mostly Cloudy
9:47 AM 64.4 °F 60.8 °F 88% 29.85 in 10.0 mi West 8.1 mph - N/A   Mostly Cloudy
10:07 AM 64.4 °F 60.8 °F 88% 29.86 in 10.0 mi West 10.4 mph - N/A   Overcast
10:27 AM 64.4 °F 60.8 °F 88% 29.86 in 10.0 mi WNW 8.1 mph - N/A   Overcast
10:47 AM 64.4 °F 60.8 °F 88% 29.86 in 10.0 mi West 8.1 mph - N/A   Overcast
11:07 AM 64.4 °F 60.8 °F 88% 29.86 in 10.0 mi West 6.9 mph - N/A   Overcast
11:27 AM 66.2 °F 60.8 °F 83% 29.87 in 10.0 mi West 8.1 mph - N/A   Overcast
11:47 AM 69.8 °F 60.8 °F 73% 29.87 in 10.0 mi West 9.2 mph - N/A   Mostly Cloudy
12:07 PM 69.8 °F 60.8 °F 73% 29.87 in 10.0 mi WNW 11.5 mph - N/A   Mostly Cloudy
12:27 PM 71.6 °F 60.8 °F 69% 29.88 in 10.0 mi West 10.4 mph - N/A   Mostly Cloudy
12:47 PM 71.6 °F 60.8 °F 69% 29.88 in 10.0 mi West 10.4 mph - N/A   Mostly Cloudy
1:07 PM 71.6 °F 60.8 °F 69% 29.88 in 10.0 mi WNW 11.5 mph - N/A   Overcast
1:27 PM 71.6 °F 60.8 °F 69% 29.88 in 10.0 mi WSW 8.1 mph - N/A   Overcast
1:47 PM - - N/A% 2.96 in 10.0 mi West 10.4 mph - N/A   Overcast
2:07 PM 71.6 °F 60.8 °F 69% 29.88 in 10.0 mi West 8.1 mph - N/A   Overcast
2:27 PM 71.6 °F 59.0 °F 64% 29.88 in 10.0 mi West 13.8 mph - N/A   Overcast
2:47 PM 71.6 °F 59.0 °F 64% 29.88 in 10.0 mi WSW 10.4 mph - N/A   Mostly Cloudy
3:07 PM 71.6 °F 59.0 °F 64% 29.88 in 10.0 mi WSW 12.7 mph - N/A   Mostly Cloudy
3:27 PM 71.6 °F 59.0 °F 64% 29.88 in 10.0 mi WSW 12.7 mph - N/A   Scattered Clouds
3:48 PM 71.6 °F 59.0 °F 64% 29.88 in 10.0 mi WSW 10.4 mph 16.1 mph N/A   Mostly Cloudy
4:07 PM 71.6 °F 59.0 °F 64% 29.88 in 10.0 mi West 12.7 mph - N/A   Overcast
4:27 PM 71.6 °F 59.0 °F 64% 29.88 in 10.0 mi West 11.5 mph - N/A   Overcast
4:47 PM 71.6 °F 59.0 °F 64% 29.88 in 10.0 mi West 12.7 mph - N/A   Mostly Cloudy
5:07 PM 71.6 °F 59.0 °F 64% 29.88 in 10.0 mi West 9.2 mph - N/A   Clear
5:27 PM 71.6 °F 60.8 °F 69% 29.89 in 10.0 mi WNW 9.2 mph - N/A   Scattered Clouds
5:47 PM 71.6 °F 60.8 °F 69% 29.88 in 10.0 mi West 6.9 mph - N/A   Scattered Clouds
6:07 PM 71.6 °F 59.0 °F 64% 29.89 in 10.0 mi West 8.1 mph - N/A   Scattered Clouds
6:27 PM 71.6 °F 60.8 °F 69% 29.89 in 10.0 mi WNW 5.8 mph - N/A   Scattered Clouds
6:47 PM 69.8 °F 57.2 °F 64% 29.90 in 10.0 mi WNW 6.9 mph - N/A   Scattered Clouds
7:07 PM 68.0 °F 55.4 °F 64% 29.90 in 10.0 mi West 6.9 mph - N/A   Clear
7:27 PM 64.4 °F 55.4 °F 73% 29.91 in 10.0 mi West 4.6 mph - N/A   Clear
7:47 PM 64.4 °F 55.4 °F 73% 29.92 in 10.0 mi West 3.5 mph - N/A   Clear
8:07 PM 64.4 °F 55.4 °F 73% 29.93 in 10.0 mi West 8.1 mph - N/A   Clear
8:27 PM 62.6 °F 55.4 °F 77% 29.93 in 10.0 mi West 5.8 mph - N/A   Clear
8:47 PM 62.6 °F 55.4 °F 77% 29.93 in 10.0 mi West 3.5 mph - N/A   Clear
9:07 PM 62.6 °F 55.4 °F 77% 29.94 in 10.0 mi West 4.6 mph - N/A   Clear
9:27 PM 62.6 °F 55.4 °F 77% 29.94 in 10.0 mi WNW 4.6 mph - N/A   Clear
9:47 PM 62.6 °F 57.2 °F 82% 29.94 in 10.0 mi Calm Calm - N/A   Clear
10:08 PM 59.0 °F 55.4 °F 88% 29.95 in 10.0 mi Calm Calm - N/A   Clear
10:27 PM 57.2 °F 55.4 °F 94% 29.94 in 10.0 mi Calm Calm - N/A   Clear
10:47 PM 57.2 °F 55.4 °F 94% 29.95 in 10.0 mi Calm Calm - N/A   Clear
11:08 PM 57.2 °F 55.4 °F 94% 29.95 in 10.0 mi Calm Calm - N/A   Clear
11:27 PM 55.4 °F 53.6 °F 94% 29.95 in 5.0 mi Calm Calm - N/A   Clear
11:47 PM 51.8 °F 51.8 °F 100% 29.94 in 1.0 mi Calm Calm - N/A   Mist